Theta_e
340 341 343 343 343 342 343 341 339 338 338 338 337 338 339 339 338 338 338 337 337 337 337 337 336 336 336 336 336 336 337 336 337 337 335 335 335 334 333 333 332 331 331 331 331 331 331 330 328 326 326 324
338 339 341 340 341 342 341 341 340 339 339 338 339 339 338 338 338 338 337 336 337 338 336 336 336 335 335 335 335 335 335 334 334 334 333 333 333 333 332 332 331 330 331 331 329 330 330 328 326 325 325 320
334 334 337 338 338 339 340 340 339 339 337 338 337 335 334 334 333 332 332 332 332 332 332 333 334 335 334 334 334 334 334 333 334 333 332 332 332 332 332 331 330 330 330 331 330 330 329 327 324 323 323 321
332 331 331 334 336 337 337 338 337 336 334 333 330 329 328 326 325 324 323 323 326 328 329 330 329 334 335 334 334 334 333 332 332 332 332 332 332 332 331 330 330 331 332 332 332 331 328 324 322 318 318 320
332 331 330 330 331 332 333 334 334 333 327 325 325 324 324 324 324 324 324 324 324 324 325 322 325 333 334 334 333 333 332 333 332 332 331 331 331 330 330 327 326 326 329 331 332 331 324 318 317 318 319 320
332 332 331 330 330 331 330 329 328 328 329 329 324 323 325 324 324 324 323 324 326 324 325 324 322 326 331 332 331 332 332 332 332 331 331 331 331 331 330 324 317 317 321 323 325 324 319 318 318 318 319 319
331 330 330 329 328 328 327 329 329 328 328 325 324 323 324 324 324 324 323 324 325 325 321 323 321 323 326 326 325 328 330 331 331 332 332 331 332 332 329 320 319 318 319 319 320 318 316 318 318 318 318 319
330 330 329 329 328 327 326 327 328 328 327 326 325 324 324 324 323 323 323 326 326 323 320 319 319 320 321 321 320 320 322 326 330 331 332 331 330 328 321 317 316 317 320 319 318 317 318 318 318 318 317 320
329 329 329 328 327 327 326 326 326 327 327 326 325 325 324 324 324 322 322 322 321 319 319 318 319 319 319 318 317 315 317 317 318 318 318 318 319 316 316 316 318 318 318 317 318 318 317 316 318 320 321 322
328 328 326 326 327 326 326 326 325 323 325 324 325 323 322 323 322 320 320 319 319 320 320 319 319 319 318 318 318 316 317 318 318 316 316 318 319 318 319 319 320 318 319 319 319 320 318 316 318 320 321 322
326 325 325 326 325 324 324 324 324 322 323 324 324 321 321 322 320 319 319 318 317 319 320 319 319 318 318 319 319 318 317 318 320 318 317 319 320 319 322 322 319 323 324 323 323 320 318 317 318 320 321 320
323 323 324 325 323 323 323 322 322 322 322 323 323 320 322 320 320 320 318 319 317 319 320 321 321 320 319 320 320 318 317 318 317 318 317 317 319 323 322 320 319 323 323 320 321 320 319 318 320 321 319 319
323 322 324 323 322 322 323 323 322 321 321 322 321 320 321 319 319 317 320 319 320 318 318 318 319 318 319 318 320 318 318 319 319 319 318 320 317 318 318 317 320 319 321 321 319 320 319 317 321 321 319 319
322 322 322 321 322 322 321 322 322 318 319 322 321 321 320 320 320 318 319 320 318 318 318 316 317 317 317 317 319 317 320 318 317 318 317 317 317 318 315 317 317 316 318 322 320 318 316 319 321 321 319 318
323 323 322 322 321 321 320 320 320 320 320 321 321 322 321 320 320 320 319 319 319 318 317 318 318 318 319 317 319 319 320 318 317 317 318 319 317 316 317 317 316 316 316 317 321 319 317 318 320 321 317 316
323 322 323 323 321 320 320 318 319 320 320 319 320 321 321 320 320 319 319 320 320 319 318 318 318 318 318 319 319 320 319 319 318 318 318 317 316 317 318 316 318 317 317 319 319 316 319 321 322 319 317 316
324 323 324 323 321 321 321 320 318 321 320 320 320 321 322 321 321 320 321 319 320 319 319 319 319 318 320 321 321 318 319 318 318 318 318 317 317 317 317 318 320 320 318 319 318 316 317 318 319 316 316 314
324 324 324 323 322 322 321 319 318 320 320 320 320 321 322 322 321 321 321 321 319 319 319 320 319 319 320 318 320 321 319 318 317 318 317 316 315 317 316 317 320 315 315 314 314 315 317 320 318 317 316 313
324 323 323 323 322 323 322 320 321 321 322 320 322 322 323 323 322 322 321 322 323 321 320 320 320 318 320 320 319 320 319 319 317 316 320 318 316 314 313 317 316 314 313 317 318 316 319 319 318 315 316 315
324 324 324 324 322 323 322 321 321 321 322 322 322 324 324 324 324 323 321 322 323 322 321 320 320 320 319 319 319 319 317 318 318 317 317 319 318 315 314 314 316 316 316 313 314 314 316 316 316 314 313 310
324 324 324 324 324 324 323 322 322 322 322 322 322 324 324 324 324 323 323 323 323 323 322 319 321 320 321 320 320 319 317 317 318 319 320 316 314 314 312 313 312 312 312 313 313 312 312 313 314 313 311 308
324 325 324 323 324 321 324 323 323 322 322 321 321 323 324 325 325 324 324 323 324 323 323 322 321 321 321 322 321 320 318 318 317 318 318 316 316 315 313 312 311 312 313 314 314 311 311 313 312 311 309 306
324 324 323 323 322 321 324 323 322 322 321 321 320 321 324 325 325 324 325 324 324 324 323 322 321 320 321 322 321 320 318 315 318 317 315 316 315 314 317 316 313 313 312 314 312 314 313 314 312 311 308 306
323 322 321 321 320 319 321 323 320 321 321 321 320 320 323 325 325 325 325 325 325 325 324 322 321 321 320 321 320 319 318 315 316 318 317 315 316 316 314 314 315 312 310 308 311 310 311 311 311 309 308 306
323 322 321 321 321 320 321 322 321 320 320 320 320 320 322 325 325 325 325 325 326 325 323 323 321 322 320 321 321 320 319 319 317 318 319 316 314 315 313 314 313 312 309 309 309 311 309 309 309 307 307 305
323 324 324 322 321 321 321 321 320 320 321 322 321 320 322 325 325 326 326 325 326 326 325 323 322 321 322 321 321 321 320 318 315 318 317 317 314 312 313 314 313 313 310 307 307 306 305 305 307 305 306 303
323 324 324 324 322 322 320 323 323 322 322 324 324 322 322 325 326 326 326 326 326 326 326 325 323 322 322 322 321 320 319 317 318 319 318 317 317 313 312 312 312 313 309 305 306 304 304 301 303 305 304 304
326 324 324 322 322 323 323 322 324 325 325 325 326 324 324 325 327 326 326 326 326 327 326 325 323 322 322 322 321 321 320 318 319 319 318 317 315 315 314 313 314 310 310 307 307 304 302 302 299 297 302 299
328 326 325 324 321 321 322 321 323 323 324 325 326 326 325 325 326 327 327 327 327 326 326 326 325 323 322 322 321 321 321 319 320 320 320 318 316 316 317 315 313 313 310 309 307 303 298 297 297 297 299 297
329 328 327 325 323 322 321 321 322 322 323 324 324 326 327 326 327 327 327 327 327 326 325 326 325 324 322 321 321 321 321 320 319 319 319 318 318 317 316 316 313 313 310 307 306 307 302 297 296 297 299 298
327 328 328 327 325 324 323 322 323 325 326 326 327 327 326 327 327 328 327 327 327 327 326 326 325 324 324 322 321 320 321 320 319 320 320 319 318 318 316 314 312 311 312 308 306 304 304 303 301 297 298 295
Wind_Speed
9 9 10 11 11 11 11 12 12 12 13 13 13 14 14 14 12 12 12 11 9 10 10 10 9 9 10 10 10 10 10 9 9 8 8 7 7 7 7 7 6 5 4 5 6 7 8 8 9 9 6 5
9 8 9 9 10 9 9 10 11 12 12 12 14 13 12 12 12 12 11 11 11 10 9 8 8 9 9 9 9 9 8 8 8 7 7 6 6 6 6 5 4 2 2 2 3 4 5 6 7 7 7 3
7 9 9 10 10 9 10 10 11 12 12 12 11 12 12 12 11 10 11 11 11 10 9 9 9 8 9 8 8 8 7 8 7 7 6 6 5 4 4 3 1 1 2 2 1 2 3 5 6 7 4 3
5 8 9 9 10 10 10 10 10 11 12 12 12 11 12 12 10 9 7 11 9 10 10 9 6 7 7 8 8 7 7 7 6 5 5 4 4 3 2 1 2 4 4 5 4 3 4 5 6 4 3 4
5 7 9 7 9 10 10 10 10 11 12 11 11 10 11 9 7 6 5 5 6 7 6 7 8 8 8 7 6 6 5 5 4 4 3 2 2 2 1 3 5 6 6 7 7 5 6 6 4 3 4 5
5 5 7 6 4 5 7 8 9 7 6 7 6 9 8 6 6 5 5 5 6 5 5 5 6 6 6 5 4 3 4 4 2 2 2 1 2 2 1 2 3 3 5 6 7 6 4 4 3 2 5 5
5 4 6 5 4 4 5 6 6 5 5 5 5 5 5 5 5 5 5 5 5 5 5 4 4 3 3 4 3 1 2 2 3 4 3 4 4 4 2 1 3 3 5 4 6 4 1 1 3 3 3 6
5 5 5 6 5 5 4 4 5 5 5 5 5 5 5 4 4 4 4 7 10 8 4 3 3 3 2 3 3 2 2 3 3 5 5 5 6 3 2 3 4 3 2 2 1 0 1 3 3 2 2 6
6 6 5 6 6 5 5 5 5 5 5 5 5 6 5 4 5 5 5 5 5 3 4 3 3 2 2 2 2 3 2 2 3 3 4 4 3 4 3 3 3 3 1 0 2 1 3 2 3 2 2 5
7 7 6 6 6 6 5 6 5 5 5 5 5 4 4 5 6 5 6 5 5 4 4 4 4 4 3 3 3 3 3 3 4 4 4 3 4 4 4 4 3 2 3 2 1 2 2 2 3 3 3 5
6 6 6 7 6 7 6 6 6 6 5 6 5 4 4 7 6 5 6 5 5 5 4 4 4 4 4 4 4 4 5 5 5 5 5 5 4 2 2 4 3 2 2 2 3 2 1 2 2 2 4 5
6 5 7 7 7 7 8 7 6 6 7 5 7 4 4 5 6 6 6 4 5 5 5 5 6 5 5 5 5 5 5 5 4 4 3 3 2 1 2 1 3 2 1 2 4 2 2 3 3 3 3 5
4 4 5 7 7 6 7 6 6 6 5 5 5 4 4 4 5 3 6 5 5 5 6 6 5 6 6 6 6 5 6 5 3 4 2 0 1 3 3 3 3 3 2 4 3 3 2 2 2 2 2 5
5 5 4 4 5 6 6 6 6 5 5 6 6 4 4 5 5 5 6 6 5 5 5 3 4 6 5 5 6 4 5 5 3 2 1 2 3 4 2 2 2 1 1 2 3 2 3 0 1 3 3 5
6 6 5 4 5 5 4 5 6 5 6 6 6 6 4 4 5 5 5 6 6 5 4 4 4 4 4 4 5 5 5 2 1 2 4 3 3 1 1 2 1 0 0 2 3 2 3 2 2 4 3 4
7 7 6 5 5 6 4 4 4 4 5 6 6 5 5 4 5 4 5 6 5 5 5 5 5 4 4 5 5 4 3 5 4 3 3 1 1 1 1 3 2 1 1 2 3 1 2 0 5 4 3 4
7 6 6 6 6 6 4 5 3 5 6 6 5 5 6 5 5 4 5 6 6 6 6 5 5 4 5 5 5 3 4 3 1 0 1 1 1 2 2 1 2 1 2 1 1 0 1 3 4 3 4 4
7 7 7 7 6 6 6 6 5 5 6 6 6 6 7 6 5 4 5 6 5 6 6 5 5 5 6 4 4 5 3 3 2 2 1 3 1 3 2 3 4 2 1 1 1 2 3 6 5 4 4 4
7 6 7 7 7 7 7 7 7 6 6 6 6 7 7 7 6 4 4 5 7 6 6 6 6 5 7 5 4 5 4 4 3 3 5 2 3 1 1 1 1 1 1 0 1 3 4 5 4 4 4 5
8 7 6 7 7 7 7 7 7 7 6 6 6 7 7 7 6 5 4 5 5 7 6 6 7 7 5 5 5 5 4 3 4 4 2 5 4 2 1 2 1 2 3 2 1 2 4 5 5 4 5 6
7 8 7 7 8 7 7 8 8 7 6 6 6 6 7 7 7 6 5 5 5 7 6 6 6 6 5 5 5 5 3 4 5 4 4 3 3 3 2 3 3 1 2 2 1 1 4 4 5 4 5 6
9 9 7 7 7 6 7 7 7 7 6 6 6 7 7 7 8 7 6 5 6 6 7 6 6 6 5 6 6 6 4 6 3 4 5 4 1 4 3 3 3 2 1 0 1 1 3 5 4 4 6 5
7 7 7 6 7 6 7 6 6 7 7 7 6 7 8 8 8 8 7 6 6 7 7 6 6 5 5 6 6 6 5 3 4 4 4 5 2 1 4 6 4 3 2 0 1 1 1 4 4 5 4 5
7 7 8 8 6 6 7 7 8 8 9 8 8 8 9 8 9 8 8 7 7 7 7 6 6 6 5 6 6 6 5 5 6 6 5 4 4 4 2 1 4 3 2 2 3 3 2 2 5 4 5 4
10 10 9 8 10 10 10 10 9 8 8 9 9 9 9 10 9 10 10 9 8 8 7 7 6 6 5 6 7 7 7 6 7 6 6 6 4 5 3 1 1 2 4 2 3 5 2 2 2 3 4 5
10 10 11 12 12 11 10 9 9 10 9 10 9 10 10 10 11 11 11 10 9 9 8 8 7 7 7 7 7 7 7 6 6 6 5 5 3 1 5 4 4 4 3 1 3 4 1 2 2 2 3 4
11 9 8 8 6 9 7 8 9 9 10 9 10 11 11 11 11 11 10 11 10 9 9 9 8 8 7 7 7 7 7 6 6 7 7 7 7 4 1 2 3 5 3 3 3 3 5 2 3 1 2 1
9 8 6 4 4 5 7 7 8 8 8 9 9 11 11 10 11 11 11 11 11 10 10 10 9 8 7 8 7 8 7 6 8 7 7 6 7 7 4 3 4 3 4 4 6 4 3 5 5 3 5 3
9 7 7 6 4 4 5 2 6 7 8 11 10 9 10 11 10 12 12 12 12 11 11 11 10 9 8 8 8 8 8 8 8 8 8 9 7 7 7 6 4 4 3 4 4 6 4 2 1 5 4 5
11 10 10 10 10 10 10 11 10 13 14 12 12 13 8 8 11 12 12 12 12 12 11 11 11 10 9 9 8 8 8 8 7 8 8 8 8 8 6 8 6 6 3 3 4 4 4 4 4 5 4 7
12 12 11 13 14 13 13 13 11 10 9 10 9 7 9 9 8 10 12 11 11 12 12 11 10 10 10 9 8 8 8 9 9 8 9 8 8 8 7 6 7 8 7 1 2 1 1 2 2 3 8 7
Wind_Direction
114 115 122 124 128 129 128 126 123 123 123 122 120 106 101 100 100 99 94 95 96 106 99 92 95 103 105 103 99 96 94 90 85 84 85 86 85 84 79 72 67 64 48 24 8 3 3 358 356 353 23 48
110 110 115 118 117 121 124 121 124 124 122 115 108 105 102 101 102 96 87 73 64 60 79 90 105 106 100 100 96 99 90 91 91 90 90 91 89 88 86 81 78 67 42 21 3 345 351 352 346 346 357 79
108 108 109 113 115 115 116 115 110 106 105 107 104 105 104 98 93 87 84 80 76 66 59 61 62 87 97 106 107 106 101 98 100 101 101 98 97 93 89 97 99 332 291 287 311 318 339 340 338 340 23 58
114 109 109 113 116 118 121 122 119 119 117 115 114 115 112 114 110 106 94 92 81 75 66 61 69 90 107 110 109 106 103 101 106 109 110 107 101 90 86 25 305 310 306 310 311 334 342 351 332 341 32 70
119 120 108 106 118 125 127 129 130 128 123 121 126 125 126 121 119 120 117 97 99 82 70 63 61 70 83 88 92 102 108 109 107 113 117 121 106 106 52 342 318 316 318 319 313 342 359 341 333 338 46 80
131 134 119 120 122 120 127 130 127 132 135 136 142 143 139 136 138 131 121 119 114 112 100 75 75 82 105 95 77 103 118 131 137 142 164 207 226 219 147 307 334 317 309 310 308 322 336 337 319 43 71 78
144 144 132 132 134 131 141 145 141 147 143 149 155 161 155 136 130 135 133 132 134 131 120 122 104 111 107 115 130 142 171 158 198 215 221 229 236 244 151 216 284 286 272 287 267 272 301 322 25 30 67 89
154 148 141 144 147 147 156 161 157 158 160 167 169 174 171 134 136 134 134 133 129 127 131 134 144 162 161 157 188 241 294 275 257 249 245 241 251 268 257 204 228 251 254 252 24 314 132 58 47 24 42 85
168 161 154 155 156 158 165 177 172 171 176 179 183 183 179 157 144 152 140 137 133 143 139 153 170 181 198 206 222 212 231 248 255 271 253 259 259 251 231 240 212 176 116 285 154 98 49 53 45 339 46 100
176 168 161 161 168 164 173 180 187 186 192 195 195 180 178 148 149 158 143 146 149 154 158 166 192 196 192 197 218 196 219 229 230 243 243 241 241 235 220 215 181 171 176 219 42 68 31 28 36 328 63 100
171 179 173 168 171 166 183 189 190 204 194 196 208 164 159 142 153 152 147 147 155 165 175 190 194 192 197 201 209 197 202 220 219 219 226 230 245 241 203 211 200 201 224 227 91 118 96 23 31 360 88 111
173 174 170 174 176 173 181 187 191 196 193 178 195 167 162 159 156 148 142 170 170 191 191 204 203 196 192 206 218 199 198 213 211 227 230 218 237 67 23 5 319 273 203 97 122 116 86 41 352 27 87 113
172 165 156 168 178 179 175 188 185 184 183 171 187 162 158 156 162 145 156 177 189 192 189 202 199 189 200 186 213 182 212 204 221 240 256 348 143 103 66 30 18 346 300 82 131 136 88 41 318 60 97 110
165 192 169 194 177 171 167 188 182 173 179 182 178 179 174 173 170 176 170 183 187 182 211 207 185 178 192 180 204 181 203 221 193 225 71 149 80 54 53 29 317 19 313 75 147 164 123 329 264 106 113 113
178 189 184 192 195 178 163 192 181 172 176 178 182 185 189 183 183 185 178 180 184 193 194 206 185 195 204 188 207 197 207 232 159 177 137 133 136 107 47 268 239 101 87 157 145 202 129 231 66 115 110 102
179 191 178 178 183 182 193 184 162 178 172 172 183 187 196 200 194 189 188 180 179 186 182 189 196 209 198 205 212 194 171 177 186 139 161 164 197 176 162 244 314 328 24 144 197 200 198 255 99 109 111 90
177 185 175 170 177 177 191 201 176 176 184 174 184 191 198 211 201 180 187 190 175 177 179 182 196 214 219 215 199 178 193 149 137 41 351 327 223 203 212 310 304 226 107 136 339 18 321 87 111 120 103 95
173 182 178 171 173 172 181 198 189 197 195 178 183 188 195 208 207 196 183 183 177 172 177 190 196 203 225 222 179 187 166 160 168 218 209 255 116 214 235 243 219 166 145 22 360 43 33 91 130 125 97 82
184 176 175 176 176 176 178 188 193 197 196 188 183 183 192 198 204 208 181 186 167 177 178 191 206 200 213 196 177 167 191 169 196 190 219 184 178 191 127 177 253 118 103 114 164 67 81 114 122 112 106 90
183 180 181 178 182 177 181 184 191 197 197 190 180 182 185 193 200 210 189 186 183 179 178 182 197 205 200 185 174 182 168 150 202 207 207 199 156 143 62 82 69 54 85 66 80 85 90 116 124 117 107 100
184 180 182 183 183 183 182 185 190 194 198 188 179 185 183 190 195 212 195 188 190 184 193 189 199 205 197 180 176 187 170 177 197 160 164 188 179 145 148 124 135 66 77 79 326 120 92 110 127 122 120 117
183 186 180 182 185 178 187 193 188 190 189 198 188 184 188 188 193 206 206 186 191 191 196 192 197 205 194 186 180 185 168 199 189 174 153 171 201 148 119 135 129 142 67 55 6 360 73 133 122 123 123 124
177 180 181 180 182 182 192 196 196 189 193 202 191 187 190 187 191 200 208 197 188 191 196 201 205 190 190 185 183 181 182 166 160 161 148 150 123 75 145 154 171 167 170 64 61 45 140 140 135 124 119 116
173 176 181 185 190 193 197 198 196 199 198 198 197 192 187 189 190 194 199 202 197 194 192 196 204 201 180 186 180 183 186 189 176 169 156 164 143 136 94 111 151 136 125 89 51 52 101 150 134 120 124 106
181 181 185 192 193 196 195 197 198 198 201 201 200 193 188 188 191 192 195 198 194 198 197 199 201 203 192 183 188 186 195 197 194 188 174 169 148 153 150 185 183 160 113 101 31 52 45 52 61 107 123 119
195 196 192 187 193 189 189 190 194 201 203 201 200 197 189 189 191 192 193 194 194 196 194 199 202 202 199 188 192 193 195 197 186 179 163 146 138 157 147 187 192 199 111 42 145 133 80 12 9 15 93 123
198 201 202 197 191 188 192 205 201 201 199 195 198 200 193 190 191 190 193 193 194 194 198 200 198 202 199 193 188 193 201 181 182 176 171 167 161 173 171 155 201 182 154 169 147 124 100 165 136 322 56 349
191 195 198 206 189 199 193 195 201 205 205 202 202 203 196 193 191 189 192 192 193 196 197 198 199 199 199 198 192 191 194 185 185 183 178 174 172 152 167 179 218 204 177 144 133 153 186 181 130 166 231 181
182 174 189 196 199 191 207 219 196 199 212 208 205 199 199 198 189 191 193 193 194 195 197 198 199 198 200 199 197 193 194 189 190 188 183 178 168 174 174 190 182 222 195 192 184 142 120 85 154 210 195 126
189 190 193 189 194 199 201 207 197 204 204 200 203 207 196 191 196 194 195 195 196 196 196 198 200 199 199 201 198 194 196 192 188 189 183 186 175 185 188 172 173 192 234 207 204 199 167 157 171 177 190 135
191 197 200 202 206 205 204 206 212 211 208 203 209 205 206 206 201 202 200 199 197 198 198 198 199 201 202 200 196 193 192 195 193 189 188 182 179 185 176 161 176 182 195 141 277 177 155 147 169 163 147 194